QPF
0.31 0.33 0.24 0.14 0.07 0.03 0.01 0.01 0.00 0.01 0.01 0.01 0.00 0.00 0.00 0.00 0.00 0.00 0.00 0.00 0.00 0.00 0.00 0.00 0.00 0.00 0.00 0.00 0.00 0.00 0.00 0.00 0.00 0.00 0.00 0.00 0.00 0.00 0.00 0.00 0.00 0.00 0.00 0.00
0.29 0.24 0.12 0.06 0.05 0.05 0.03 0.02 0.01 0.00 0.00 0.00 0.00 0.00 0.00 0.00 0.00 0.00 0.00 0.00 0.00 0.00 0.00 0.00 0.00 0.00 0.00 0.00 0.00 0.00 0.00 0.00 0.00 0.00 0.00 0.00 0.00 0.00 0.00 0.00 0.00 0.00 0.00 0.00
0.21 0.13 0.05 0.05 0.07 0.08 0.07 0.03 0.01 0.00 0.00 0.01 0.01 0.01 0.00 0.00 0.00 0.00 0.00 0.00 0.00 0.00 0.00 0.00 0.00 0.00 0.00 0.00 0.00 0.00 0.00 0.00 0.00 0.00 0.00 0.00 0.00 0.00 0.00 0.00 0.00 0.00 0.00 0.00
0.16 0.10 0.07 0.08 0.08 0.07 0.06 0.03 0.02 0.02 0.02 0.02 0.02 0.01 0.00 0.00 0.00 0.00 0.00 0.00 0.00 0.00 0.00 0.00 0.00 0.00 0.00 0.00 0.00 0.00 0.00 0.00 0.00 0.00 0.00 0.00 0.00 0.00 0.00 0.00 0.00 0.00 0.00 0.00
0.18 0.10 0.08 0.09 0.07 0.05 0.04 0.02 0.02 0.03 0.04 0.05 0.03 0.01 0.00 0.00 0.00 0.00 0.00 0.00 0.00 0.00 0.00 0.00 0.00 0.00 0.00 0.00 0.00 0.00 0.00 0.00 0.00 0.00 0.00 0.00 0.00 0.00 0.00 0.00 0.00 0.00 0.00 0.00
0.13 0.10 0.07 0.06 0.04 0.04 0.04 0.05 0.07 0.09 0.13 0.16 0.06 0.01 0.00 0.00 0.00 0.00 0.00 0.00 0.00 0.00 0.00 0.00 0.00 0.00 0.00 0.00 0.00 0.00 0.00 0.00 0.00 0.00 0.00 0.00 0.00 0.00 0.00 0.00 0.00 0.00 0.00 0.00
0.18 0.15 0.11 0.07 0.07 0.10 0.12 0.14 0.26 0.34 0.36 0.24 0.05 0.01 0.00 0.00 0.00 0.00 0.00 0.00 0.00 0.00 0.00 0.00 0.00 0.00 0.00 0.00 0.00 0.00 0.00 0.00 0.00 0.00 0.00 0.00 0.00 0.00 0.00 0.00 0.00 0.00 0.00 0.00
0.14 0.14 0.11 0.10 0.08 0.10 0.12 0.13 0.21 0.24 0.17 0.07 0.02 0.01 0.00 0.00 0.00 0.00 0.00 0.00 0.00 0.00 0.00 0.00 0.00 0.00 0.00 0.00 0.00 0.00 0.00 0.00 0.00 0.00 0.00 0.00 0.00 0.00 0.00 0.00 0.00 0.00 0.00 0.00
0.08 0.07 0.04 0.04 0.04 0.06 0.09 0.09 0.07 0.08 0.09 0.04 0.02 0.01 0.00 0.00 0.00 0.00 0.00 0.00 0.00 0.00 0.00 0.00 0.00 0.00 0.00 0.00 0.00 0.00 0.00 0.00 0.00 0.00 0.00 0.00 0.00 0.00 0.00 0.00 0.00 0.00 0.00 0.00
0.08 0.07 0.03 0.02 0.04 0.07 0.09 0.10 0.11 0.19 0.23 0.12 0.03 0.00 0.00 0.00 0.00 0.00 0.00 0.00 0.00 0.00 0.00 0.00 0.00 0.00 0.00 0.00 0.00 0.00 0.00 0.00 0.00 0.00 0.00 0.00 0.00 0.00 0.00 0.00 0.00 0.00 0.00 0.00
0.11 0.12 0.07 0.06 0.07 0.07 0.09 0.13 0.20 0.25 0.23 0.13 0.05 0.01 0.00 0.00 0.00 0.00 0.00 0.00 0.00 0.00 0.00 0.00 0.00 0.00 0.00 0.00 0.00 0.00 0.00 0.00 0.00 0.00 0.00 0.00 0.00 0.00 0.00 0.00 0.00 0.00 0.00 0.00
0.12 0.17 0.14 0.07 0.06 0.05 0.06 0.08 0.13 0.20 0.21 0.10 0.05 0.01 0.00 0.00 0.00 0.00 0.00 0.00 0.00 0.00 0.00 0.00 0.00 0.00 0.00 0.00 0.00 0.00 0.00 0.00 0.00 0.00 0.00 0.00 0.00 0.00 0.00 0.00 0.00 0.00 0.00 0.00
0.12 0.19 0.20 0.13 0.10 0.09 0.10 0.09 0.08 0.10 0.12 0.11 0.07 0.02 0.00 0.00 0.00 0.00 0.00 0.00 0.00 0.00 0.00 0.00 0.00 0.00 0.00 0.00 0.00 0.00 0.00 0.00 0.00 0.00 0.00 0.00 0.00 0.00 0.00 0.00 0.00 0.00 0.00 0.00
0.16 0.19 0.16 0.11 0.07 0.06 0.08 0.07 0.06 0.09 0.16 0.15 0.08 0.02 0.00 0.00 0.00 0.00 0.00 0.00 0.00 0.00 0.00 0.00 0.00 0.00 0.00 0.00 0.00 0.00 0.00 0.00 0.00 0.00 0.00 0.00 0.00 0.00 0.00 0.00 0.00 0.00 0.00 0.00
0.20 0.24 0.15 0.08 0.04 0.04 0.05 0.05 0.05 0.07 0.09 0.09 0.05 0.02 0.00 0.00 0.00 0.00 0.00 0.00 0.00 0.00 0.00 0.00 0.00 0.00 0.00 0.00 0.00 0.00 0.00 0.00 0.00 0.00 0.00 0.00 0.00 0.00 0.00 0.00 0.00 0.00 0.00 0.00
0.18 0.19 0.12 0.07 0.04 0.04 0.05 0.04 0.04 0.04 0.05 0.05 0.03 0.02 0.00 0.00 0.00 0.00 0.00 0.00 0.00 0.00 0.00 0.00 0.00 0.00 0.00 0.00 0.00 0.00 0.00 0.00 0.00 0.00 0.00 0.00 0.00 0.00 0.00 0.00 0.00 0.00 0.00 0.00
0.15 0.15 0.12 0.09 0.05 0.07 0.09 0.04 0.03 0.02 0.02 0.02 0.02 0.01 0.00 0.00 0.00 0.00 0.00 0.00 0.00 0.00 0.00 0.00 0.00 0.00 0.00 0.00 0.00 0.00 0.00 0.00 0.00 0.00 0.00 0.00 0.00 0.00 0.00 0.00 0.00 0.00 0.00 0.00
0.12 0.13 0.14 0.11 0.08 0.13 0.07 0.01 0.01 0.01 0.00 0.00 0.00 0.00 0.00 0.00 0.00 0.00 0.00 0.00 0.00 0.00 0.00 0.00 0.00 0.00 0.00 0.00 0.00 0.00 0.00 0.00 0.00 0.00 0.00 0.00 0.00 0.00 0.00 0.00 0.00 0.00 0.00 0.00
0.05 0.10 0.15 0.13 0.11 0.08 0.02 0.00 0.00 0.00 0.00 0.00 0.00 0.00 0.00 0.00 0.00 0.00 0.00 0.00 0.00 0.00 0.00 0.00 0.00 0.00 0.00 0.00 0.00 0.00 0.00 0.00 0.00 0.00 0.00 0.00 0.00 0.00 0.00 0.00 0.00 0.00 0.00 0.00
0.03 0.07 0.14 0.14 0.12 0.06 0.01 0.00 0.00 0.01 0.01 0.00 0.00 0.00 0.00 0.00 0.00 0.00 0.00 0.00 0.00 0.00 0.00 0.00 0.00 0.00 0.00 0.00 0.00 0.00 0.00 0.00 0.00 0.00 0.00 0.00 0.00 0.00 0.00 0.00 0.00 0.00 0.00 0.00
0.07 0.12 0.14 0.11 0.09 0.03 0.00 0.00 0.00 0.02 0.02 0.00 0.00 0.00 0.00 0.00 0.00 0.00 0.00 0.00 0.00 0.00 0.00 0.00 0.00 0.00 0.00 0.00 0.00 0.00 0.00 0.00 0.00 0.00 0.00 0.00 0.00 0.00 0.00 0.00 0.00 0.00 0.00 0.00
0.05 0.09 0.10 0.09 0.08 0.03 0.01 0.01 0.02 0.03 0.01 0.01 0.00 0.00 0.00 0.00 0.00 0.00 0.00 0.00 0.00 0.00 0.00 0.00 0.00 0.00 0.00 0.00 0.00 0.00 0.00 0.00 0.00 0.00 0.00 0.00 0.00 0.00 0.00 0.00 0.00 0.00 0.00 0.00
0.05 0.05 0.06 0.06 0.05 0.03 0.02 0.03 0.03 0.03 0.02 0.01 0.01 0.00 0.00 0.00 0.00 0.00 0.00 0.00 0.00 0.00 0.00 0.00 0.00 0.00 0.00 0.00 0.00 0.00 0.00 0.00 0.00 0.00 0.00 0.00 0.00 0.00 0.00 0.00 0.00 0.00 0.00 0.00
0.04 0.05 0.06 0.06 0.04 0.04 0.03 0.03 0.04 0.04 0.04 0.03 0.02 0.01 0.01 0.00 0.00 0.00 0.00 0.00 0.00 0.00 0.00 0.00 0.00 0.00 0.00 0.00 0.00 0.00 0.00 0.00 0.00 0.00 0.00 0.00 0.00 0.00 0.00 0.00 0.00 0.00 0.00 0.00
0.03 0.05 0.06 0.06 0.05 0.05 0.05 0.05 0.05 0.05 0.05 0.05 0.04 0.03 0.02 0.01 0.01 0.00 0.00 0.00 0.00 0.00 0.00 0.00 0.00 0.00 0.00 0.00 0.00 0.00 0.00 0.00 0.00 0.00 0.00 0.00 0.00 0.00 0.00 0.00 0.00 0.00 0.00 0.00
0.02 0.03 0.05 0.05 0.04 0.05 0.05 0.06 0.05 0.05 0.05 0.06 0.05 0.04 0.03 0.02 0.01 0.01 0.01 0.00 0.00 0.00 0.00 0.00 0.00 0.00 0.00 0.00 0.00 0.00 0.00 0.00 0.00 0.00 0.00 0.00 0.00 0.00 0.00 0.00 0.00 0.01 0.01 0.00
MSLP
1015.46 1015.86 1016.28 1016.76 1017.27 1017.82 1018.38 1018.91 1019.36 1019.71 1019.90 1019.92 1019.78 1019.50 1019.11 1018.64 1018.17 1017.72 1017.32 1017.01 1016.79 1016.66 1016.60 1016.62 1016.70 1016.83 1017.02 1017.27 1017.56 1017.92 1018.34 1018.80 1019.31 1019.83 1020.37 1020.89 1021.39 1021.85 1022.26 1022.63 1022.97 1023.29 1023.61 1023.94
1015.19 1015.57 1016.02 1016.52 1017.10 1017.73 1018.38 1019.00 1019.54 1019.93 1020.13 1020.13 1019.93 1019.55 1019.03 1018.43 1017.82 1017.25 1016.76 1016.38 1016.11 1015.95 1015.89 1015.89 1015.95 1016.04 1016.18 1016.37 1016.61 1016.92 1017.30 1017.75 1018.27 1018.83 1019.41 1019.99 1020.55 1021.06 1021.51 1021.92 1022.28 1022.62 1022.96 1023.32
1014.82 1015.20 1015.65 1016.20 1016.83 1017.54 1018.27 1018.96 1019.55 1019.97 1020.18 1020.14 1019.86 1019.38 1018.74 1018.03 1017.30 1016.63 1016.06 1015.63 1015.33 1015.16 1015.08 1015.07 1015.11 1015.19 1015.29 1015.43 1015.63 1015.90 1016.25 1016.69 1017.20 1017.78 1018.38 1018.99 1019.58 1020.12 1020.61 1021.04 1021.44 1021.81 1022.17 1022.56
1014.36 1014.72 1015.17 1015.73 1016.41 1017.17 1017.96 1018.70 1019.33 1019.76 1019.95 1019.87 1019.52 1018.95 1018.22 1017.41 1016.59 1015.85 1015.23 1014.75 1014.43 1014.25 1014.17 1014.16 1014.20 1014.26 1014.35 1014.47 1014.64 1014.88 1015.21 1015.63 1016.13 1016.69 1017.30 1017.91 1018.50 1019.05 1019.55 1020.00 1020.42 1020.81 1021.20 1021.61
1013.84 1014.15 1014.57 1015.14 1015.83 1016.61 1017.43 1018.20 1018.83 1019.26 1019.42 1019.30 1018.90 1018.26 1017.46 1016.58 1015.70 1014.91 1014.25 1013.76 1013.43 1013.24 1013.16 1013.16 1013.20 1013.26 1013.35 1013.47 1013.63 1013.86 1014.17 1014.57 1015.05 1015.59 1016.16 1016.75 1017.31 1017.85 1018.34 1018.80 1019.23 1019.65 1020.07 1020.50
1013.30 1013.54 1013.92 1014.46 1015.13 1015.91 1016.71 1017.47 1018.09 1018.49 1018.62 1018.46 1018.01 1017.32 1016.48 1015.56 1014.66 1013.84 1013.17 1012.67 1012.33 1012.14 1012.06 1012.06 1012.11 1012.18 1012.28 1012.40 1012.58 1012.81 1013.11 1013.50 1013.95 1014.45 1014.99 1015.53 1016.05 1016.55 1017.03 1017.48 1017.92 1018.36 1018.81 1019.28
1012.83 1013.00 1013.31 1013.79 1014.41 1015.15 1015.91 1016.63 1017.20 1017.55 1017.63 1017.42 1016.93 1016.22 1015.35 1014.42 1013.51 1012.70 1012.03 1011.53 1011.19 1011.00 1010.92 1010.92 1010.96 1011.04 1011.15 1011.29 1011.47 1011.71 1012.02 1012.39 1012.82 1013.28 1013.77 1014.27 1014.75 1015.22 1015.67 1016.11 1016.56 1017.03 1017.51 1018.01
1012.53 1012.62 1012.85 1013.25 1013.80 1014.46 1015.15 1015.78 1016.27 1016.54 1016.55 1016.28 1015.75 1015.02 1014.15 1013.23 1012.35 1011.56 1010.91 1010.42 1010.09 1009.89 1009.80 1009.78 1009.82 1009.89 1009.99 1010.14 1010.33 1010.57 1010.88 1011.24 1011.65 1012.09 1012.54 1012.99 1013.44 1013.88 1014.32 1014.77 1015.23 1015.72 1016.24 1016.78
1012.45 1012.47 1012.64 1012.96 1013.42 1013.98 1014.55 1015.07 1015.44 1015.60 1015.51 1015.16 1014.59 1013.83 1012.97 1012.08 1011.23 1010.48 1009.87 1009.40 1009.08 1008.88 1008.77 1008.74 1008.75 1008.79 1008.88 1009.01 1009.20 1009.43 1009.74 1010.09 1010.48 1010.89 1011.32 1011.75 1012.17 1012.60 1013.04 1013.49 1013.98 1014.50 1015.05 1015.63
1012.64 1012.62 1012.73 1012.98 1013.34 1013.78 1014.22 1014.58 1014.80 1014.81 1014.59 1014.14 1013.50 1012.71 1011.85 1010.99 1010.19 1009.50 1008.94 1008.52 1008.23 1008.03 1007.91 1007.85 1007.83 1007.84 1007.89 1007.99 1008.14 1008.36 1008.64 1008.97 1009.34 1009.74 1010.15 1010.56 1010.98 1011.41 1011.86 1012.33 1012.84 1013.39 1013.98 1014.58
1013.06 1013.04 1013.12 1013.31 1013.58 1013.89 1014.17 1014.35 1014.37 1014.20 1013.81 1013.23 1012.50 1011.67 1010.80 1009.98 1009.24 1008.63 1008.14 1007.79 1007.54 1007.38 1007.27 1007.19 1007.13 1007.10 1007.10 1007.15 1007.25 1007.42 1007.66 1007.96 1008.31 1008.68 1009.08 1009.48 1009.90 1010.34 1010.80 1011.29 1011.82 1012.39 1012.99 1013.61
1013.63 1013.65 1013.73 1013.87 1014.05 1014.23 1014.33 1014.31 1014.11 1013.73 1013.15 1012.41 1011.57 1010.67 1009.80 1009.00 1008.33 1007.80 1007.41 1007.15 1006.98 1006.87 1006.79 1006.72 1006.64 1006.58 1006.53 1006.52 1006.57 1006.68 1006.86 1007.11 1007.42 1007.76 1008.14 1008.54 1008.96 1009.39 1009.86 1010.36 1010.90 1011.47 1012.07 1012.67
1014.25 1014.32 1014.41 1014.52 1014.62 1014.65 1014.58 1014.34 1013.91 1013.30 1012.51 1011.60 1010.63 1009.66 1008.75 1007.99 1007.38 1006.94 1006.66 1006.51 1006.44 1006.42 1006.40 1006.37 1006.31 1006.23 1006.15 1006.10 1006.09 1006.14 1006.26 1006.46 1006.71 1007.02 1007.37 1007.75 1008.15 1008.59 1009.05 1009.54 1010.07 1010.62 1011.19 1011.76
1014.80 1014.92 1015.03 1015.11 1015.11 1015.00 1014.75 1014.30 1013.64 1012.80 1011.81 1010.72 1009.61 1008.55 1007.62 1006.87 1006.31 1005.96 1005.79 1005.75 1005.81 1005.89 1005.97 1006.01 1006.00 1005.95 1005.88 1005.81 1005.76 1005.77 1005.84 1005.98 1006.19 1006.45 1006.77 1007.12 1007.50 1007.91 1008.35 1008.82 1009.31 1009.83 1010.35 1010.87
1015.19 1015.34 1015.44 1015.46 1015.37 1015.13 1014.69 1014.05 1013.19 1012.15 1010.97 1009.72 1008.49 1007.34 1006.36 1005.60 1005.08 1004.80 1004.72 1004.79 1004.96 1005.17 1005.37 1005.51 1005.60 1005.61 1005.59 1005.54 1005.50 1005.49 1005.54 1005.65 1005.82 1006.04 1006.32 1006.64 1006.99 1007.38 1007.79 1008.22 1008.67 1009.13 1009.59 1010.04
1015.35 1015.49 1015.55 1015.49 1015.29 1014.92 1014.33 1013.53 1012.51 1011.31 1009.99 1008.61 1007.27 1006.05 1005.02 1004.23 1003.72 1003.46 1003.43 1003.59 1003.85 1004.17 1004.49 1004.76 1004.96 1005.09 1005.15 1005.18 1005.19 1005.21 1005.27 1005.38 1005.54 1005.75 1006.00 1006.30 1006.62 1006.98 1007.35 1007.74 1008.15 1008.55 1008.96 1009.35
1015.28 1015.35 1015.31 1015.16 1014.84 1014.35 1013.66 1012.74 1011.62 1010.33 1008.92 1007.48 1006.07 1004.78 1003.69 1002.85 1002.30 1002.02 1001.99 1002.17 1002.49 1002.89 1003.31 1003.70 1004.03 1004.29 1004.48 1004.63 1004.74 1004.84 1004.96 1005.11 1005.29 1005.51 1005.76 1006.05 1006.36 1006.70 1007.05 1007.41 1007.77 1008.14 1008.50 1008.84
1015.00 1014.94 1014.77 1014.49 1014.07 1013.49 1012.73 1011.77 1010.62 1009.32 1007.91 1006.44 1005.00 1003.67 1002.52 1001.61 1000.97 1000.61 1000.52 1000.66 1000.96 1001.39 1001.87 1002.36 1002.82 1003.22 1003.57 1003.86 1004.11 1004.33 1004.55 1004.77 1005.01 1005.27 1005.55 1005.85 1006.17 1006.51 1006.85 1007.20 1007.55 1007.89 1008.22 1008.53
1014.56 1014.32 1014.00 1013.58 1013.07 1012.44 1011.67 1010.75 1009.66 1008.43 1007.08 1005.66 1004.25 1002.90 1001.68 1000.68 999.92 999.43 999.21 999.23 999.46 999.85 1000.35 1000.90 1001.45 1001.98 1002.47 1002.92 1003.32 1003.68 1004.02 1004.34 1004.66 1004.99 1005.32 1005.66 1006.01 1006.36 1006.72 1007.07 1007.43 1007.77 1008.09 1008.40
1014.01 1013.58 1013.09 1012.57 1011.99 1011.36 1010.65 1009.82 1008.87 1007.78 1006.56 1005.26 1003.90 1002.56 1001.30 1000.19 999.28 998.62 998.22 998.08 998.18 998.48 998.93 999.49 1000.10 1000.73 1001.34 1001.92 1002.46 1002.96 1003.41 1003.84 1004.25 1004.65 1005.03 1005.42 1005.81 1006.20 1006.58 1006.97 1007.34 1007.71 1008.05 1008.38
1013.39 1012.78 1012.15 1011.55 1010.96 1010.38 1009.77 1009.11 1008.34 1007.45 1006.43 1005.27 1004.01 1002.70 1001.40 1000.19 999.14 998.30 997.70 997.37 997.30 997.46 997.83 998.35 998.98 999.65 1000.34 1001.02 1001.66 1002.26 1002.81 1003.31 1003.79 1004.25 1004.69 1005.12 1005.55 1005.97 1006.40 1006.82 1007.23 1007.62 1008.00 1008.36
1012.74 1011.98 1011.26 1010.62 1010.06 1009.57 1009.12 1008.66 1008.12 1007.46 1006.64 1005.66 1004.52 1003.27 1001.96 1000.68 999.49 998.48 997.70 997.18 996.93 996.95 997.21 997.66 998.25 998.92 999.64 1000.35 1001.04 1001.68 1002.27 1002.82 1003.33 1003.81 1004.28 1004.74 1005.20 1005.66 1006.12 1006.58 1007.03 1007.47 1007.88 1008.27
1012.07 1011.22 1010.46 1009.83 1009.35 1008.99 1008.72 1008.47 1008.16 1007.73 1007.13 1006.32 1005.32 1004.14 1002.85 1001.53 1000.25 999.12 998.19 997.51 997.11 997.00 997.14 997.51 998.03 998.66 999.34 1000.03 1000.70 1001.32 1001.90 1002.42 1002.92 1003.39 1003.85 1004.31 1004.78 1005.26 1005.75 1006.25 1006.74 1007.21 1007.67 1008.10
1011.40 1010.53 1009.79 1009.22 1008.84 1008.63 1008.54 1008.49 1008.39 1008.17 1007.76 1007.12 1006.24 1005.15 1003.91 1002.58 1001.28 1000.08 999.07 998.30 997.80 997.59 997.64 997.91 998.35 998.89 999.49 1000.10 1000.68 1001.22 1001.71 1002.17 1002.59 1003.01 1003.43 1003.87 1004.34 1004.83 1005.34 1005.87 1006.39 1006.91 1007.39 1007.85
1010.77 1009.93 1009.26 1008.79 1008.54 1008.47 1008.54 1008.65 1008.73 1008.67 1008.41 1007.90 1007.14 1006.14 1004.97 1003.70 1002.42 1001.23 1000.21 999.42 998.89 998.62 998.61 998.80 999.14 999.58 1000.06 1000.53 1000.98 1001.39 1001.75 1002.08 1002.40 1002.74 1003.10 1003.50 1003.95 1004.44 1004.97 1005.52 1006.08 1006.62 1007.14 1007.62
1010.22 1009.48 1008.91 1008.57 1008.44 1008.50 1008.69 1008.92 1009.10 1009.15 1008.99 1008.58 1007.91 1007.01 1005.92 1004.74 1003.55 1002.44 1001.48 1000.74 1000.23 999.97 999.92 1000.05 1000.30 1000.62 1000.95 1001.27 1001.54 1001.78 1001.97 1002.16 1002.36 1002.60 1002.89 1003.25 1003.68 1004.18 1004.73 1005.31 1005.90 1006.47 1007.01 1007.51
Thickness
5566 5566 5577 5590 5594 5598 5594 5595 5598 5607 5616 5616 5621 5631 5646 5655 5656 5662 5668 5673 5680 5688 5695 5695 5697 5697 5696 5695 5693 5692 5689 5686 5681 5678 5675 5672 5670 5667 5665 5663 5662 5659 5657 5654
5554 5564 5585 5586 5584 5584 5583 5585 5590 5597 5604 5607 5610 5621 5638 5649 5654 5662 5670 5676 5681 5686 5690 5693 5695 5696 5697 5697 5695 5693 5691 5688 5685 5683 5680 5676 5673 5670 5668 5665 5663 5660 5658 5655
5556 5574 5577 5572 5573 5575 5578 5583 5588 5588 5593 5595 5596 5607 5628 5646 5652 5661 5670 5678 5684 5688 5691 5694 5695 5696 5697 5698 5698 5697 5695 5692 5689 5685 5680 5675 5672 5669 5667 5666 5664 5661 5658 5655
5547 5560 5563 5564 5568 5572 5577 5585 5582 5580 5578 5581 5583 5592 5624 5639 5648 5660 5670 5675 5682 5688 5692 5695 5696 5697 5698 5701 5700 5699 5697 5694 5691 5686 5682 5679 5676 5675 5675 5671 5667 5663 5659 5656
5545 5553 5555 5559 5571 5571 5573 5578 5575 5573 5570 5569 5572 5577 5614 5629 5643 5663 5673 5678 5684 5689 5692 5695 5698 5700 5701 5701 5700 5700 5698 5695 5693 5688 5686 5682 5679 5679 5675 5670 5667 5663 5660 5656
5537 5544 5550 5559 5566 5564 5564 5564 5562 5561 5558 5561 5578 5572 5602 5625 5651 5662 5671 5678 5684 5689 5691 5695 5698 5699 5700 5700 5699 5698 5697 5695 5693 5690 5687 5684 5682 5679 5674 5671 5667 5664 5660 5657
5523 5530 5541 5550 5549 5550 5554 5551 5547 5548 5551 5565 5578 5569 5607 5640 5652 5663 5670 5675 5681 5686 5688 5691 5694 5695 5697 5697 5698 5697 5696 5695 5693 5690 5687 5686 5684 5680 5676 5673 5669 5664 5661 5658
5516 5524 5536 5544 5551 5554 5556 5554 5550 5551 5555 5559 5559 5572 5616 5637 5647 5656 5665 5672 5676 5680 5683 5687 5692 5694 5696 5696 5696 5696 5695 5695 5693 5690 5688 5686 5683 5679 5677 5674 5670 5666 5663 5661
5515 5525 5537 5543 5551 5549 5545 5546 5554 5544 5540 5543 5548 5566 5598 5622 5634 5644 5654 5661 5668 5674 5677 5682 5686 5689 5692 5693 5694 5695 5694 5693 5692 5690 5687 5684 5682 5678 5677 5674 5669 5665 5663 5660
5514 5515 5525 5533 5534 5538 5545 5546 5539 5535 5538 5542 5549 5560 5597 5623 5632 5639 5646 5656 5665 5668 5671 5676 5680 5683 5686 5688 5689 5689 5690 5691 5689 5687 5685 5683 5680 5678 5675 5670 5667 5664 5661 5656
5505 5504 5511 5518 5526 5536 5534 5534 5536 5536 5535 5541 5543 5573 5616 5628 5634 5638 5647 5654 5659 5663 5668 5671 5674 5676 5678 5679 5680 5681 5683 5683 5683 5682 5680 5678 5676 5673 5670 5666 5664 5661 5657 5652
5496 5495 5496 5509 5524 5532 5532 5537 5536 5533 5533 5536 5546 5577 5619 5622 5629 5633 5640 5646 5651 5655 5660 5662 5664 5665 5666 5668 5670 5672 5674 5676 5677 5676 5673 5672 5670 5666 5664 5662 5660 5656 5653 5649
5489 5484 5485 5491 5499 5508 5516 5527 5533 5531 5526 5527 5535 5569 5610 5611 5616 5621 5627 5633 5638 5643 5647 5650 5651 5653 5656 5658 5660 5662 5665 5667 5668 5666 5665 5664 5662 5659 5658 5656 5654 5650 5647 5643
5485 5478 5484 5496 5506 5510 5511 5519 5525 5522 5522 5528 5539 5564 5593 5603 5607 5612 5615 5620 5626 5631 5635 5637 5640 5642 5645 5647 5650 5652 5654 5656 5656 5655 5655 5655 5654 5653 5651 5648 5645 5642 5639 5636
5470 5468 5473 5484 5494 5497 5500 5509 5515 5516 5523 5525 5544 5558 5585 5599 5601 5605 5607 5610 5614 5620 5624 5627 5630 5633 5634 5636 5638 5640 5642 5643 5643 5643 5644 5645 5644 5642 5640 5638 5635 5633 5630 5628
5455 5455 5459 5467 5478 5482 5486 5498 5507 5513 5519 5524 5534 5550 5583 5594 5592 5594 5599 5601 5604 5612 5617 5620 5622 5624 5626 5628 5629 5630 5631 5631 5631 5632 5633 5632 5630 5629 5627 5626 5624 5622 5620 5617
5443 5441 5442 5451 5464 5463 5470 5497 5507 5511 5521 5526 5532 5559 5577 5578 5585 5591 5593 5593 5598 5605 5609 5612 5615 5618 5620 5621 5621 5622 5623 5620 5619 5619 5619 5617 5616 5615 5614 5612 5610 5609 5608 5605
5435 5432 5428 5431 5438 5448 5487 5505 5508 5512 5523 5528 5534 5552 5563 5571 5579 5581 5584 5586 5593 5598 5601 5604 5606 5609 5611 5611 5610 5611 5609 5607 5606 5606 5605 5603 5602 5601 5600 5598 5597 5595 5594 5592
5433 5429 5421 5422 5426 5439 5470 5489 5498 5502 5513 5524 5528 5541 5549 5557 5557 5567 5579 5581 5586 5590 5592 5595 5598 5600 5600 5599 5599 5596 5594 5593 5593 5594 5594 5592 5591 5589 5587 5586 5585 5582 5580 5578
5425 5424 5417 5415 5422 5429 5476 5488 5490 5490 5494 5511 5515 5524 5532 5534 5534 5567 5578 5568 5571 5575 5579 5582 5584 5585 5586 5588 5585 5583 5582 5582 5584 5585 5584 5582 5580 5578 5577 5575 5572 5570 5568 5566
5417 5415 5415 5414 5415 5430 5460 5468 5475 5473 5491 5497 5497 5503 5511 5519 5533 5552 5554 5553 5558 5562 5565 5568 5570 5571 5575 5574 5571 5572 5573 5574 5576 5573 5571 5569 5568 5566 5565 5562 5560 5557 5554 5551
5413 5409 5409 5410 5413 5431 5450 5452 5457 5464 5471 5474 5478 5484 5490 5501 5513 5521 5529 5536 5542 5545 5549 5552 5554 5556 5558 5558 5559 5561 5563 5565 5561 5559 5558 5556 5554 5553 5551 5549 5546 5543 5541 5538
5404 5410 5410 5416 5425 5432 5430 5432 5434 5436 5444 5450 5455 5463 5469 5478 5491 5500 5510 5518 5524 5529 5533 5535 5536 5538 5539 5540 5543 5547 5549 5547 5545 5544 5543 5542 5540 5539 5537 5536 5533 5530 5528 5526
5388 5392 5398 5404 5413 5416 5416 5414 5413 5416 5422 5429 5434 5441 5449 5459 5470 5478 5487 5495 5502 5507 5511 5515 5517 5519 5521 5521 5523 5527 5530 5530 5531 5530 5529 5527 5526 5524 5522 5520 5519 5517 5515 5513
5369 5373 5381 5393 5396 5399 5402 5397 5396 5399 5405 5410 5416 5422 5431 5440 5448 5456 5464 5471 5478 5484 5488 5494 5498 5501 5502 5502 5504 5507 5510 5513 5515 5515 5513 5512 5511 5509 5506 5504 5502 5501 5500 5500
5351 5354 5364 5379 5376 5374 5382 5380 5379 5382 5387 5391 5398 5406 5412 5418 5426 5434 5442 5448 5454 5460 5465 5470 5474 5477 5479 5481 5484 5487 5491 5493 5497 5498 5497 5495 5494 5492 5491 5489 5485 5484 5483 5482